Location: Houston
(29.7630°N, 95.3630°W)
Time: 08:20:25
(UTC-05:00)

Amateur Radio Satellites - All Passes

Search period start: 28 July 2015 07:50
Search period end: 29 July 2015 07:50
Location: Houston, 29.7630°N, 95.3630°W

Satellite Date Start Highest point End Downlink Frequencies (MHz)
Time Altitude Azimuth
RS-15 28 Jul 08:00:25 08:12:06 61° 58° (ENE) 08:24:12 29.354- 29.394
SRMSAT 28 Jul 08:00:41 08:05:36 27° 172° (S) 08:10:33 437.500
ISS 28 Jul 08:02:33 08:04:22 14° 233° (SW) 08:06:03 145.825
JUGNU 28 Jul 08:05:59 08:11:06 31° 183° (S) 08:16:12 437.505
Cubesat XI-IV 28 Jul 08:07:31 08:12:39 50° 286° (WNW) 08:17:45 437.490
GONETS M04 28 Jul 08:27:36 08:35:25 35° 284° (WNW) 08:43:03
PRISM 28 Jul 08:42:22 08:45:31 20° 265° (W) 08:48:32 437.425
CUTE 1.7 + AOD 2 28 Jul 08:57:04 08:59:21 15° 93° (E) 09:01:51 437.475
SEEDS 28 Jul 09:01:58 09:03:46 13° 92° (E) 09:05:50 437.485
BRITE-PL 28 Jul 09:03:08 09:07:31 79° 102° (ESE) 09:12:12 437.365/2234.400
CANX-2 28 Jul 09:03:59 09:07:08 20° 94° (E) 09:10:25 2200.000
CUTE-I 28 Jul 09:07:07 09:09:42 13° 293° (WNW) 09:11:57 437.470
STRAND 1 28 Jul 09:13:59 09:15:29 11° 269° (W) 09:16:34 437.568
Cosmos 2499 28 Jul 09:22:09 09:29:14 63° 279° (W) 09:36:49 435.465 / 435.565
SO-50 28 Jul 09:35:35 09:38:04 15° 109° (ESE) 09:40:50 436.795
GOMX 1 28 Jul 09:36:54 09:41:23 74° 282° (WNW) 09:46:11 467.674
AAUSAT CUBESAT 2 28 Jul 09:38:31 09:41:53 24° 95° (E) 09:45:19 437.432
DOVE 4 28 Jul 09:47:11 09:51:47 85° 102° (ESE) 09:56:40 437.250
HO-68 28 Jul 09:48:54 09:56:03 68° 103° (ESE) 10:03:13 435.675
SRMSAT 28 Jul 09:49:11 09:54:20 31° 182° (S) 09:59:30 437.500
UWE-3 28 Jul 09:50:09 09:51:24 11° 91° (E) 09:53:00 435.000/436.395/437.385
M-CUBED/EXP-1 PRIME 28 Jul 09:50:21 09:54:02 66° 72° (ENE) 09:58:06 437.505
PCSat 28 Jul 09:51:41 09:56:36 38° 110° (ESE) 10:01:38 145.827
CUBEBUG 2 28 Jul 09:54:38 09:57:41 18° 94° (E) 10:00:58 437.445
JUGNU 28 Jul 09:55:09 09:59:39 23° 192° (SSW) 10:04:06 437.505
FUNcube-1 28 Jul 10:00:50 10:01:23 10° 91° (E) 10:02:18 145.935
BEESAT 3 28 Jul 10:10:52 10:14:20 28° 57° (ENE) 10:17:48 437.485
RS-15 28 Jul 10:13:51 10:24:10 33° 253° (WSW) 10:34:14 29.354- 29.394
Oscar 11 28 Jul 10:18:40 10:22:32 31° 97° (E) 10:26:26 145.826/435.025
AUBIESAT-1 28 Jul 10:24:13 10:27:51 49° 257° (WSW) 10:31:48 437.475
COMPASS 1 28 Jul 10:27:56 10:32:06 60° 284° (WNW) 10:36:15 437.405
CINEMA 3 28 Jul 10:29:16 10:33:57 75° 282° (WNW) 10:38:47 145.822/145.860
CUTE 1.7 + AOD 2 28 Jul 10:31:30 10:35:23 33° 286° (WNW) 10:39:11 437.475
SEEDS 28 Jul 10:35:48 10:39:44 36° 285° (WNW) 10:43:37 437.485
CANX-2 28 Jul 10:39:31 10:43:01 24° 287° (WNW) 10:46:25 2200.000
UNISAT 6 28 Jul 10:51:34 10:55:33 40° 74° (ENE) 10:59:39 437.425
HUMSAT D 28 Jul 10:58:07 11:01:17 20° 95° (E) 11:04:36 437.325/437.525
QB50P1 28 Jul 10:58:38 11:01:13 17° 71° (ENE) 11:03:58 145.935-145.965
DUCHIFAT 1 28 Jul 10:58:57 11:01:25 16° 71° (ENE) 11:04:03 145.980
NANOSAT C BR1 28 Jul 11:01:32 11:04:17 18° 72° (ENE) 11:07:10 145.865
BEESAT 2 28 Jul 11:01:52 11:05:55 89° 252° (WSW) 11:09:54 435.950
ZACube-1 28 Jul 11:09:45 11:14:18 83° 101° (ESE) 11:18:54 437.345
SO-50 28 Jul 11:13:45 11:18:14 44° 301° (WNW) 11:22:52 436.795
AAUSAT CUBESAT 2 28 Jul 11:14:15 11:17:21 20° 288° (WNW) 11:20:18 437.432
UWE-3 28 Jul 11:23:45 11:28:12 50° 284° (WNW) 11:32:41 435.000/436.395/437.385
CUBEBUG 2 28 Jul 11:30:16 11:34:25 33° 286° (WNW) 11:38:35 437.445
DELFI C3 28 Jul 11:30:25 11:34:18 43° 285° (WNW) 11:38:07 145.870
FUNcube-1 28 Jul 11:33:36 11:38:01 52° 284° (WNW) 11:42:27 145.935
AISAT 28 Jul 11:34:32 11:37:49 21° 95° (E) 11:41:14 437.250
PCSat 28 Jul 11:35:57 11:40:10 22° 304° (NW) 11:44:16 145.827
ANTELSAT 28 Jul 11:36:26 11:40:36 52° 260° (W) 11:44:51 437.575/2403.000
TIGRISAT 28 Jul 11:36:35 11:40:45 54° 260° (W) 11:45:01 435.000
POLYITAN 1 28 Jul 11:37:49 11:41:53 54° 76° (ENE) 11:46:00 437.675
SRMSAT 28 Jul 11:38:26 11:43:03 24° 191° (SSW) 11:47:40 437.500
HO-68 28 Jul 11:38:29 11:43:14 18° 296° (WNW) 11:47:38 435.675
JUGNU 28 Jul 11:46:45 11:48:09 11° 199° (SSW) 11:49:23 437.505
BEESAT 3 28 Jul 11:49:28 11:52:03 16° 250° (WSW) 11:54:29 437.485
50 SAT 28 Jul 11:52:35 11:56:21 41° 99° (E) 12:00:07 437.505
UKube-1 28 Jul 11:55:02 11:59:19 63° 101° (E) 12:03:35 .
Oscar 11 28 Jul 11:55:41 11:58:29 16° 289° (WNW) 12:01:07 145.826/435.025
POPSAT HIP 1 28 Jul 11:56:36 12:00:47 87° 258° (WSW) 12:04:59 437.405
CUBEBUG 1 28 Jul 12:02:22 12:05:48 23° 96° (E) 12:09:19 437.445
QB50P2 28 Jul 12:03:07 12:07:18 68° 260° (W) 12:11:30 145.880/145.840
AIST 2 28 Jul 12:05:16 12:09:26 84° 244° (WSW) 12:13:31 435.215
YUBILEINY 28 Jul 12:07:18 12:15:15 38° 76° (ENE) 12:23:22 435.215
ESTCUBE 1 28 Jul 12:08:36 12:12:43 35° 98° (E) 12:16:50 437.505/2401.250
VELOX 1 28 Jul 12:14:05 12:18:27 64° 100° (E) 12:22:49 145.980
DX 1 28 Jul 12:16:19 12:20:36 62° 284° (WNW) 12:24:53 434.975-435.025
BUGSAT 1 28 Jul 12:24:04 12:28:08 64° 259° (WSW) 12:32:10 437.445
UNISAT 6 28 Jul 12:30:54 12:32:36 12° 269° (W) 12:34:01 437.425
Cosmos 2491 28 Jul 12:32:01 12:39:32 34° 88° (E) 12:47:15 435.465 / 435.565
QB50P1 28 Jul 12:33:14 12:36:53 28° 263° (W) 12:40:30 145.935-145.965
DUCHIFAT 1 28 Jul 12:33:19 12:37:00 29° 263° (W) 12:40:39 145.980
HUMSAT D 28 Jul 12:33:26 12:36:58 24° 287° (WNW) 12:40:25 437.325/437.525
NANOSAT C BR1 28 Jul 12:36:22 12:39:56 26° 263° (W) 12:43:27 145.865
SPROUT 28 Jul 12:54:59 12:58:36 27° 96° (E) 13:02:17 437.525
AISAT 28 Jul 13:10:44 13:14:21 24° 288° (WNW) 13:17:52 437.250
Oscar 19 28 Jul 13:14:17 13:18:02 22° 70° (ENE) 13:21:57 437.125/150
O/OREOS (USA 219) 28 Jul 13:21:49 13:26:25 86° 72° (ENE) 13:31:00 437.305
AIST 1 28 Jul 13:21:57 13:26:19 71° 277° (W) 13:30:40
TISAT 1 28 Jul 13:23:44 13:27:35 35° 98° (E) 13:31:28 437.305
SRMSAT 28 Jul 13:29:43 13:31:44 12° 199° (SSW) 13:33:36 437.500
50 SAT 28 Jul 13:29:52 13:30:35 10° 290° (WNW) 13:31:02 437.505
CUBEBUG 1 28 Jul 13:38:44 13:42:02 21° 288° (WNW) 13:45:14 437.445
Gurwin Techsat 1B 28 Jul 13:42:08 13:43:04 11° 67° (ENE) 13:44:23 435.225
ESTCUBE 1 28 Jul 13:46:35 13:49:19 15° 290° (WNW) 13:51:51 437.505/2401.250
Cosmos 2504 28 Jul 13:49:27 13:54:43 19° 70° (ENE) 14:00:37 435.465 / 435.565
SWISSCUBE 28 Jul 13:58:14 14:00:28 14° 92° (E) 14:03:00 437.505
YUBILEINY 28 Jul 14:04:06 14:12:02 37° 271° (W) 14:19:46 435.215
ITUPSAT 1 28 Jul 14:16:05 14:19:30 20° 95° (E) 14:23:04 437.325
ITAMSAT 1 28 Jul 14:25:15 14:29:37 29° 72° (ENE) 14:34:06 435.822/435.867
Cosmos 2491 28 Jul 14:28:06 14:36:17 41° 283° (WNW) 14:44:18 435.465 / 435.565
SPROUT 28 Jul 14:31:29 14:34:31 18° 288° (WNW) 14:37:24 437.525
Oscar 19 28 Jul 14:52:37 14:57:13 33° 263° (W) 15:01:46 437.125/150
TISAT 1 28 Jul 15:00:51 15:03:04 14° 289° (WNW) 15:05:05 437.305
BEESAT 28 Jul 15:13:54 15:18:41 83° 285° (WNW) 15:23:27 436.000
Gurwin Techsat 1B 28 Jul 15:17:13 15:22:31 73° 258° (WSW) 15:27:51 435.225
JAS-2 28 Jul 15:19:44 15:24:50 36° 70° (ENE) 15:30:38 435.910
SWISSCUBE 28 Jul 15:34:02 15:38:34 43° 286° (WNW) 15:43:03 437.505
HORYU 2 28 Jul 15:35:50 15:38:27 16° 70° (ENE) 15:41:15 437.375
KKS-1 28 Jul 15:36:59 15:40:32 24° 96° (E) 15:44:12 437.445
Cosmos 2504 28 Jul 15:39:18 15:47:43 73° 267° (W) 15:56:17 435.465 / 435.565
ITUPSAT 1 28 Jul 15:53:14 15:57:26 30° 287° (WNW) 16:01:32 437.325
CUSAT 1 28 Jul 16:04:15 16:08:04 33° 82° (E) 16:13:03 437.405
ITAMSAT 1 28 Jul 16:04:45 16:09:06 26° 264° (W) 16:13:19 435.822/435.867
AO-7 28 Jul 16:13:47 16:21:58 64° 71° (ENE) 16:30:14 29.400- 29.500
GONETS M04 28 Jul 16:51:17 16:54:26 13° 66° (ENE) 16:58:24
STARS 28 Jul 16:56:16 17:00:37 61° 284° (WNW) 17:04:59 437.465
DANDE 28 Jul 16:56:49 17:00:35 85° 83° (E) 17:05:43 436.750
JAS-2 28 Jul 17:05:30 17:10:07 24° 268° (W) 17:14:59 435.910
HORYU 2 28 Jul 17:10:48 17:14:50 34° 262° (W) 17:18:51 437.375
KKS-1 28 Jul 17:13:34 17:17:04 22° 288° (WNW) 17:20:28 437.445
MOZHAYETS 4 28 Jul 17:33:46 17:38:20 58° 100° (E) 17:42:52
Cubesat XI-IV 28 Jul 17:46:10 17:48:52 15° 68° (ENE) 17:51:52 437.490
CUSAT 1 28 Jul 17:47:45 17:50:39 16° 263° (W) 17:53:42 437.405
AO-7 28 Jul 18:09:00 18:15:18 22° 266° (W) 18:21:11 29.400- 29.500
CUTE-I 28 Jul 18:40:35 18:45:47 54° 75° (ENE) 18:51:01 437.470
VERMONT LUNAR 28 Jul 18:42:23 18:44:44 19° 142° (SE) 18:47:08 437.305
GONETS M04 28 Jul 18:43:55 18:52:41 88° 84° (E) 19:01:27
MOZHAYETS 4 28 Jul 19:14:18 19:15:07 10° 291° (WNW) 19:15:36
CUBESAT XI-V 28 Jul 19:16:36 19:21:08 59° 100° (E) 19:25:39 437.345
Cosmos 2499 28 Jul 19:19:42 19:27:26 35° 76° (ENE) 19:35:25 435.465 / 435.565
Cubesat XI-IV 28 Jul 19:23:18 19:28:34 55° 260° (W) 19:33:50 437.490
STRAND 1 28 Jul 19:47:45 19:52:21 34° 97° (E) 19:56:58 437.568
SO-50 28 Jul 19:51:05 19:55:32 34° 56° (ENE) 19:59:56 436.795
BRITE-PL 28 Jul 20:08:29 20:12:55 45° 76° (ENE) 20:17:06 437.365/2234.400
HO-68 28 Jul 20:11:56 20:17:36 27° 67° (ENE) 20:23:28 435.675
VERMONT LUNAR 28 Jul 20:18:16 20:21:20 46° 334° (NNW) 20:24:25 437.305
CUTE-I 28 Jul 20:23:23 20:26:14 14° 268° (W) 20:28:44 437.470
PCSat 28 Jul 20:28:16 20:33:43 85° 66° (ENE) 20:39:08 145.827
PRISM 28 Jul 20:29:17 20:33:25 88° 270° (W) 20:37:30 437.425
GOMX 1 28 Jul 20:39:35 20:43:56 58° 77° (ENE) 20:48:05 467.674
GONETS M04 28 Jul 20:44:43 20:48:39 13° 277° (W) 20:51:47
DOVE 4 28 Jul 20:47:39 20:51:36 39° 75° (ENE) 20:55:29 437.250
PHONESAT 2.4 28 Jul 21:05:21 21:08:41 44° 145° (SE) 21:12:03 2401.200-2431.200
Oscar 11 28 Jul 21:09:42 21:11:15 12° 70° (ENE) 21:13:03 145.826/435.025
Cosmos 2499 28 Jul 21:12:31 21:20:40 42° 270° (W) 21:28:42 435.465 / 435.565
COMPASS 1 28 Jul 21:13:00 21:16:53 39° 75° (ENE) 21:20:50 437.405
CUTE 1.7 + AOD 2 28 Jul 21:17:36 21:21:51 78° 78° (ENE) 21:26:07 437.475
SEEDS 28 Jul 21:21:11 21:25:22 67° 77° (ENE) 21:29:35 437.485
ISS 28 Jul 21:24:31 21:26:42 17° 128° (SE) 21:28:58 145.825
CANX-2 28 Jul 21:25:23 21:29:37 73° 259° (W) 21:33:53 2200.000
CINEMA 3 28 Jul 21:25:39 21:29:35 45° 76° (ENE) 21:33:34 145.822/145.860
STRAND 1 28 Jul 21:27:33 21:31:21 21° 290° (WNW) 21:34:59 437.568
SO-50 28 Jul 21:32:12 21:35:52 21° 250° (WSW) 21:39:19 436.795
M-CUBED/EXP-1 PRIME 28 Jul 21:39:27 21:40:43 11° 94° (E) 21:42:19 437.505
BRITE-PL 28 Jul 21:50:06 21:51:39 11° 267° (W) 21:52:52 437.365/2234.400
VERMONT LUNAR 28 Jul 21:56:43 21:58:35 14° 349° (N) 22:00:26 437.305
AAUSAT CUBESAT 2 28 Jul 21:57:37 22:01:45 63° 259° (W) 22:05:57 437.432
HO-68 28 Jul 21:58:17 22:05:04 45° 260° (W) 22:11:49 435.675
ZACube-1 28 Jul 22:00:26 22:03:57 28° 73° (ENE) 22:07:35 437.345
AUBIESAT-1 28 Jul 22:10:35 22:14:16 23° 99° (E) 22:17:59 437.475
DELFI C3 28 Jul 22:11:13 22:15:04 45° 76° (ENE) 22:18:58 145.870
UWE-3 28 Jul 22:14:57 22:19:00 61° 77° (ENE) 22:23:09 435.000/436.395/437.385
RS-15 28 Jul 22:16:01 22:26:43 69° 113° (ESE) 22:37:45 29.354- 29.394
CUBEBUG 2 28 Jul 22:22:16 22:26:24 79° 259° (WSW) 22:30:36 437.445
FUNcube-1 28 Jul 22:23:21 22:27:23 55° 76° (ENE) 22:31:30 145.935
DOVE 4 28 Jul 22:28:13 22:29:35 11° 268° (W) 22:30:38 437.250
50 SAT 28 Jul 22:34:01 22:34:02 10° 70° (ENE) 22:34:17 437.505
Oscar 11 28 Jul 22:42:58 22:47:05 43° 261° (W) 22:51:13 145.826/435.025
PHONESAT 2.4 28 Jul 22:43:36 22:46:44 30° 339° (NNW) 22:49:52 2401.200-2431.200
UKube-1 28 Jul 22:44:29 22:47:56 24° 72° (ENE) 22:51:29 .
UNISAT 6 28 Jul 22:50:28 22:53:07 15° 93° (E) 22:56:00 437.425
COMPASS 1 28 Jul 22:51:07 22:52:46 12° 268° (W) 22:54:08 437.405
Cosmos 2491 28 Jul 22:54:43 22:55:14 10° 64° (ENE) 22:56:42 435.465 / 435.565
ISS 28 Jul 23:00:09 23:02:59 26° 320° (NW) 23:05:47 145.825
ESTCUBE 1 28 Jul 23:03:27 23:06:16 17° 71° (ENE) 23:09:16 437.505/2401.250
DX 1 28 Jul 23:05:47 23:09:59 50° 75° (ENE) 23:14:12 434.975-435.025
VELOX 1 28 Jul 23:06:11 23:09:51 27° 73° (ENE) 23:13:36 145.980
M-CUBED/EXP-1 PRIME 28 Jul 23:11:08 23:15:52 58° 288° (WNW) 23:20:27 437.505
HUMSAT D 28 Jul 23:18:16 23:22:22 75° 259° (WSW) 23:26:31 437.325/437.525
POLYITAN 1 28 Jul 23:30:32 23:32:49 15° 93° (E) 23:35:20 437.675
TIGRISAT 28 Jul 23:33:51 23:38:23 49° 99° (E) 23:42:58 435.000
ANTELSAT 28 Jul 23:33:56 23:38:30 51° 99° (E) 23:43:06 437.575/2403.000
VERMONT LUNAR 28 Jul 23:34:42 23:36:11 13° 6° (N) 23:37:40 437.305
AIST 1 28 Jul 23:36:49 23:39:13 15° 75° (ENE) 23:41:48
ZACube-1 28 Jul 23:37:45 23:40:23 16° 267° (W) 23:42:51 437.345
AUBIESAT-1 28 Jul 23:44:50 23:48:55 28° 292° (WNW) 23:52:50 437.475
SPROUT 28 Jul 23:46:40 23:46:48 10° 70° (ENE) 23:47:14 437.525
POPSAT HIP 1 28 Jul 23:48:14 23:51:39 24° 96° (E) 23:55:09 437.405
QB50P2 28 Jul 23:54:38 23:58:22 30° 97° (E) 00:02:10 145.880/145.840
BEESAT 3 28 Jul 23:57:56 00:01:01 22° 111° (ESE) 00:04:14 437.485
AISAT 29 Jul 00:01:36 00:05:57 58° 259° (W) 00:10:18 437.250
50 SAT 29 Jul 00:04:38 00:08:16 39° 262° (W) 00:11:55 437.505
TISAT 1 29 Jul 00:11:57 00:13:39 13° 70° (ENE) 00:15:35 437.305
BUGSAT 1 29 Jul 00:12:28 00:15:55 27° 97° (E) 00:19:27 437.445
UKube-1 29 Jul 00:20:44 00:24:01 20° 265° (W) 00:27:12 .
DUCHIFAT 1 29 Jul 00:23:11 00:27:24 67° 101° (E) 00:31:38 145.980
PHONESAT 2.4 29 Jul 00:23:24 00:25:24 14° 355° (N) 00:27:25 2401.200-2431.200
QB50P1 29 Jul 00:23:29 00:27:43 71° 101° (E) 00:31:58 145.935-145.965
UNISAT 6 29 Jul 00:25:40 00:30:01 38° 286° (WNW) 00:34:22 437.425
NANOSAT C BR1 29 Jul 00:26:17 00:30:31 76° 101° (E) 00:34:46 145.865
CUBEBUG 1 29 Jul 00:27:45 00:32:02 54° 260° (W) 00:36:19 437.445
RS-15 29 Jul 00:30:53 00:40:07 29° 314° (NW) 00:49:16 29.354- 29.394
ESTCUBE 1 29 Jul 00:38:47 00:42:55 33° 262° (W) 00:47:00 437.505/2401.250
VELOX 1 29 Jul 00:43:08 00:46:24 19° 265° (W) 00:49:31 145.980
Cosmos 2491 29 Jul 00:45:04 00:53:48 77° 84° (E) 01:02:31 435.465 / 435.565
BEESAT 2 29 Jul 00:49:17 00:53:20 75° 114° (ESE) 00:57:27 435.950
YUBILEINY 29 Jul 01:00:11 01:08:28 53° 91° (E) 01:16:53 435.215
POLYITAN 1 29 Jul 01:04:58 01:08:50 33° 286° (WNW) 01:12:38 437.675
VERMONT LUNAR 29 Jul 01:10:44 01:13:33 30° 22° (NNE) 01:16:22 437.305
TIGRISAT 29 Jul 01:12:37 01:14:46 13° 290° (WNW) 01:16:40 435.000
ANTELSAT 29 Jul 01:12:54 01:14:54 12° 290° (WNW) 01:16:37 437.575/2403.000
AIST 1 29 Jul 01:13:15 01:16:56 28° 269° (W) 01:20:33
SPROUT 29 Jul 01:18:21 01:22:30 49° 260° (W) 01:26:39 437.525
ITUPSAT 1 29 Jul 01:18:43 01:20:34 13° 69° (ENE) 01:22:44 437.325
POPSAT HIP 1 29 Jul 01:24:12 01:27:24 20° 288° (WNW) 01:30:28 437.405
QB50P2 29 Jul 01:31:18 01:34:02 16° 289° (WNW) 01:36:37 145.880/145.840
Oscar 19 29 Jul 01:33:10 01:35:00 12° 91° (E) 01:37:11 437.125/150
BEESAT 3 29 Jul 01:35:36 01:38:53 22° 304° (NW) 01:42:04 437.485
TISAT 1 29 Jul 01:45:13 01:49:07 37° 262° (W) 01:53:01 437.305
BUGSAT 1 29 Jul 01:48:35 01:51:12 16° 288° (WNW) 01:53:40 437.445
O/OREOS (USA 219) 29 Jul 01:50:06 01:53:17 20° 102° (ESE) 01:56:39 437.305
AIST 2 29 Jul 01:57:02 02:01:16 90° 276° (W) 02:05:32 435.215
PHONESAT 2.4 29 Jul 02:01:46 02:04:14 18° 12° (NNE) 02:06:44 2401.200-2431.200
BEESAT 29 Jul 02:14:14 02:18:54 56° 76° (ENE) 02:23:37 436.000
Cosmos 2504 29 Jul 02:16:50 02:18:24 11° 83° (E) 02:20:39 435.465 / 435.565
KKS-1 29 Jul 02:31:56 02:32:51 11° 69° (ENE) 02:34:04 437.445
SWISSCUBE 29 Jul 02:34:05 02:38:53 77° 259° (W) 02:43:42 437.505
Cosmos 2491 29 Jul 02:44:50 02:49:53 16° 276° (W) 02:54:17 435.465 / 435.565
ITAMSAT 1 29 Jul 02:45:02 02:48:06 16° 93° (E) 02:51:26 435.822/435.867
VERMONT LUNAR 29 Jul 02:47:27 02:50:18 32° 215° (SW) 02:53:06 437.305
ITUPSAT 1 29 Jul 02:53:23 02:58:04 52° 260° (W) 03:02:46 437.325
YUBILEINY 29 Jul 02:58:37 03:05:43 26° 288° (WNW) 03:12:31 435.215
Oscar 19 29 Jul 03:09:41 03:14:45 57° 285° (WNW) 03:19:49 437.125/150
O/OREOS (USA 219) 29 Jul 03:28:49 03:32:35 25° 295° (WNW) 03:36:16 437.305
PHONESAT 2.4 29 Jul 03:39:12 03:42:39 63° 27° (NNE) 03:46:04 2401.200-2431.200
Gurwin Techsat 1B 29 Jul 03:39:36 03:44:55 76° 102° (ESE) 03:50:13 435.225
STARS 29 Jul 03:47:01 03:51:14 52° 75° (ENE) 03:55:30 437.465
BEESAT 29 Jul 03:56:04 03:57:08 10° 269° (W) 03:57:50 436.000
Cosmos 2504 29 Jul 04:02:45 04:09:42 81° 276° (W) 04:17:05 435.465 / 435.565
KKS-1 29 Jul 04:04:48 04:09:06 50° 260° (W) 04:13:24 437.445
JUGNU 29 Jul 04:15:05 04:18:59 18° 165° (SSE) 04:22:55 437.505
JAS-2 29 Jul 04:18:37 04:26:24 64° 100° (E) 04:34:02 435.910
ITAMSAT 1 29 Jul 04:22:57 04:27:50 43° 287° (WNW) 04:32:39 435.822/435.867
AO-7 29 Jul 04:23:04 04:30:00 30° 97° (E) 04:37:08 29.400- 29.500
MOZHAYETS 4 29 Jul 04:30:07 04:33:57 27° 73° (ENE) 04:37:53
CUSAT 1 29 Jul 05:07:03 05:10:36 56° 98° (E) 05:13:29 437.405
HORYU 2 29 Jul 05:07:24 05:11:55 73° 102° (ESE) 05:16:24 437.375
RS-15 29 Jul 05:16:00 05:19:03 11° 26° (NNE) 05:22:53 29.354- 29.394
PHONESAT 2.4 29 Jul 05:18:09 05:20:23 16° 219° (SW) 05:22:30 2401.200-2431.200
ISS 29 Jul 05:32:33 05:34:42 17° 37° (NE) 05:36:55 145.825
GONETS M04 29 Jul 05:44:14 05:49:33 19° 85° (E) 05:55:25
SRMSAT 29 Jul 06:00:16 06:04:03 18° 165° (SSE) 06:07:55 437.500
JUGNU 29 Jul 06:02:30 06:07:31 29° 174° (S) 06:12:31 437.505
DANDE 29 Jul 06:04:11 06:07:56 32° 277° (W) 06:10:54 436.750
JAS-2 29 Jul 06:04:58 06:10:52 23° 293° (WNW) 06:16:26 435.910
MOZHAYETS 4 29 Jul 06:07:35 06:11:10 21° 266° (W) 06:14:37
CUBESAT XI-V 29 Jul 06:14:17 06:18:16 29° 73° (ENE) 06:22:20 437.345
AO-7 29 Jul 06:15:06 06:23:00 48° 292° (WNW) 06:30:47 29.400- 29.500
STRAND 1 29 Jul 06:58:01 07:02:15 27° 72° (ENE) 07:06:36 437.568
CUTE-I 29 Jul 07:04:08 07:08:56 35° 98° (E) 07:13:47 437.470
ISS 29 Jul 07:08:15 07:11:11 31° 230° (SW) 07:14:05 145.825
PRISM 29 Jul 07:13:35 07:17:10 29° 73° (ENE) 07:20:49 437.425
